Victoria, TX

6:12 AM CDT on September 19, 2019 (GMT -0500)
Victoria Regional

Weather History for KVCT - August, 2019

Change the Weather History Date:

Saturday, August 24, 2019

  Actual Average Record
Temperature  
Mean Temperature 85 °F 84 °F  
Max Temperature 95 °F 95 °F 104 °F (1924)
Min Temperature 75 °F 74 °F 64 °F (1961)
Degree Days  
Heating Degree Days 0 0  
Month to date heating degree days 0 0  
Since 1 June heating degree days 0 0  
Since 1 July heating degree days 0 0  
Cooling Degree Days 20 19  
Month to date cooling degree days 554 474  
Year to date cooling degree days 2507 2227  
Since 1 June cooling degree days 1739 1568  
Growing Degree Days 35 (Base 50)    
Moisture  
Dew Point 76 °F    
Average Humidity 80    
Maximum Humidity 94    
Minimum Humidity 52    
Precipitation  
Precipitation 0.11 in 0.11 in 0.83 in (1996)
Month to date precipitation 0.87 2.00  
Year to date precipitation 15.51 26.02  
Snow  
Snow 0.00 in 0.00 in 0.00 in (2002)
Month to date snowfall 0.0 0.0  
Since 1 June snowfall 0.0 0.0  
Since 1 July snowfall 0.0 0.0  
Snow Depth 0.00 in    
Sea Level Pressure  
Sea Level Pressure 29.89 in    
Wind  
Wind Speed 5 mph ()    
Max Wind Speed 24 mph    
Max Gust Speed 28 mph    
Visibility 8.6 miles    
Events Rain    
T = Trace of Precipitation, MM = Missing Value Source: Averaged Metar Reports

Daily Weather History Graph

Daily Weather History Graph

Search for Another Location

Airport or City:

Astronomy

Aug. 24, 2019 Rise Set
Actual Time 7:01 AM CDT 7:58 PM CDT
Civil Twilight 6:37 AM CDT 8:22 PM CDT
Nautical Twilight 6:08 AM CDT 8:51 PM CDT
Astronomical Twilight 5:38 AM CDT 9:20 PM CDT
Moon 1:05 AM CDT (8/24) 3:02 PM CDT (8/24)
Length of Visible Light 13h 45m
Length of Day
12h 56m
Last Quarter, 39% of the Moon is Illuminated
Aug 24
Last Quarter
Aug 30
New
Sep 5
First Quarter
Sep 13
Full
Sep 21
Last Quarter

Hourly Weather History & Observations

Time (CDT) Temp. Heat Index Dew Point Humidity Pressure Visibility Wind Dir Wind Speed Gust Speed Precip Events Conditions
12:51 AM 78.1 °F - 75.0 °F 90% 29.90 in 10.0 mi Calm Calm - N/A   Mostly Cloudy
1:51 AM 78.1 °F - 75.0 °F 90% 29.90 in 10.0 mi NNE 3.5 mph - N/A   Clear
2:51 AM 77.0 °F - 75.0 °F 94% 29.90 in 10.0 mi Calm Calm - N/A   Partly Cloudy
3:51 AM 78.1 °F - 75.0 °F 90% 29.90 in 8.0 mi NNE 3.5 mph - N/A   Clear
4:51 AM 77.0 °F - 75.0 °F 94% 29.89 in 8.0 mi NE 3.5 mph - N/A   Clear
5:51 AM 77.0 °F - 73.9 °F 90% 29.89 in 8.0 mi Calm Calm - N/A   Clear
6:51 AM 75.9 °F - 73.9 °F 94% 29.88 in 8.0 mi ENE 3.5 mph - N/A   Partly Cloudy
7:51 AM 77.0 °F - 75.0 °F 94% 29.91 in 7.0 mi ENE 5.8 mph - N/A   Clear
7:53 AM 77.0 °F - 75.0 °F 94% 29.91 in 7.0 mi ENE 4.6 mph - N/A   Partly Cloudy
8:42 AM 80.1 °F 85.8 °F 77.0 °F 90% 29.93 in 10.0 mi NE 8.1 mph - N/A   Partly Cloudy
8:51 AM 80.1 °F 85.8 °F 77.0 °F 90% 29.93 in 10.0 mi ENE 9.2 mph - N/A   Partly Cloudy
9:06 AM 81.0 °F 87.9 °F 77.0 °F 88% 29.93 in 10.0 mi ENE 6.9 mph - N/A   Scattered Clouds
9:51 AM 84.9 °F 95.3 °F 77.0 °F 77% 29.91 in 10.0 mi Calm Calm - N/A   Scattered Clouds
10:51 AM 89.1 °F 100.2 °F 75.9 °F 65% 29.91 in 10.0 mi Calm Calm - N/A   Scattered Clouds
11:51 AM 93.0 °F 103.2 °F 73.9 °F 54% 29.91 in 10.0 mi East 4.6 mph - N/A   Partly Cloudy
12:49 PM 84.2 °F 92.3 °F 75.2 °F 74% 29.91 in 1.8 mi East 9.2 mph - 0.07 in Rain Heavy Rain
12:51 PM 84.9 °F 93.3 °F 75.0 °F 72% 29.91 in 1.8 mi East 8.1 mph - 0.10 in Rain Heavy Rain
12:54 PM 84.9 °F 94.1 °F 75.9 °F 74% 29.91 in 2.5 mi East 12.7 mph - 0.01 in Rain Light Rain
1:01 PM 84.0 °F 93.7 °F 77.0 °F 79% 29.91 in 3.0 mi East 10.4 mph - 0.01 in   Haze
1:04 PM 84.0 °F 93.7 °F 77.0 °F 79% 29.90 in 10.0 mi East 12.7 mph - 0.01 in   Mostly Cloudy
1:51 PM 93.0 °F 105.3 °F 75.9 °F 57% 29.88 in 10.0 mi ESE 8.1 mph - 0.01 in   Partly Cloudy
2:51 PM 91.9 °F 103.2 °F 75.0 °F 58% 29.87 in 10.0 mi SE 19.6 mph - N/A   Mostly Cloudy
3:51 PM 88.0 °F 97.5 °F 75.0 °F 65% 29.84 in 10.0 mi SE 18.4 mph - N/A   Partly Cloudy
4:51 PM 89.1 °F 101.4 °F 77.0 °F 67% 29.82 in 10.0 mi SSE 15.0 mph - N/A   Scattered Clouds
5:51 PM 89.1 °F 101.4 °F 77.0 °F 67% 29.83 in 10.0 mi SSE 15.0 mph - N/A   Scattered Clouds
6:51 PM 87.1 °F 96.3 °F 75.0 °F 67% 29.84 in 10.0 mi SSE 13.8 mph - N/A   Clear
7:51 PM 84.9 °F 94.1 °F 75.9 °F 74% 29.86 in 10.0 mi SSE 11.5 mph - N/A   Clear
8:51 PM 82.9 °F 91.8 °F 77.0 °F 82% 29.87 in 10.0 mi SSE 6.9 mph - N/A   Clear
9:51 PM 82.0 °F 90.2 °F 77.0 °F 85% 29.91 in 10.0 mi South 5.8 mph - N/A   Clear
10:51 PM 81.0 °F 87.9 °F 77.0 °F 88% 29.92 in 10.0 mi South 5.8 mph - N/A   Clear
11:51 PM 81.0 °F 87.9 °F 77.0 °F 88% 29.89 in 10.0 mi SSE 5.8 mph - N/A   Clear